Retour au catalogue

STARLINK-31063

ActifCommunicationsVLEO
NORAD 58547·PAYLOAD·🇺🇸 United States

Lancé Dec 8, 2023 depuis Vandenberg Space Force Base

Loading…

Prochains Passages (prochaines 24 heures)

TLE

FraisSource: CelesTrak SupGP

Époque: Sep 15, 2026, 02:11 UTC

1 58547C 23192S   26258.09145833 -.00031730  00000+0 -93732-3 0  2582
2 58547  53.1565 250.8342 0001341  90.9603 295.0847 15.34411453    13

Suivez STARLINK-31063 en temps réel avec AllMySat

Download on the App Store